Change the Weather History Date:

Thursday, June 20, 2013

  Actual Average Record
Temperature  
Mean Temperature 49 °F 60 °F  
Max Temperature 50 °F 74 °F 97 °F (1970)
Min Temperature 48 °F 47 °F 40 °F (2012)
Degree Days  
Heating Degree Days 16 5  
Month to date heating degree days 147 140  
Since 1 June heating degree days 147 140  
Since 1 July heating degree days 6755 7091  
Cooling Degree Days 0 1  
Month to date cooling degree days 6 3  
Year to date cooling degree days 10 8  
Since 1 June cooling degree days 6 3  
Growing Degree Days 9 (Base 50)    
Moisture  
Dew Point 41 °F    
Average Humidity 54    
Maximum Humidity 74    
Minimum Humidity 40    
Precipitation  
Precipitation 1.32 in 0.03 in 1.32 in (2013)
Month to date precipitation 2.13 1.05  
Year to date precipitation 6.92 9.08  
Snow  
Snow 0.00 in 0.00 in - ()
Month to date snowfall 0.0 0.0  
Since 1 June snowfall 0.0 0.0  
Since 1 July snowfall 48.2 54.1  
Snow Depth 0.00 in    
Sea Level Pressure  
Sea Level Pressure 29.89 in    
Wind  
Wind Speed 12 mph (NW)    
Max Wind Speed 17 mph    
Max Gust Speed 23 mph    
Visibility 10 miles    
Events Rain    
T = Trace of Precipitation, MM = Missing Value Source: NWS Daily Summary

Daily Weather History Graph

Daily Weather History Graph

Search for Another Location

Airport or City:

Trip Planner

Search our weather history database for the weather conditions in past years. The results will help you decide how hot, cold, wet, or windy it might be!

Date:

Astronomy

Jun. 20, 2013 Rise Set
Actual Time 5:03 AM PDT 9:01 PM PDT
Civil Twilight 4:23 AM PDT 9:41 PM PDT
Nautical Twilight 3:27 AM PDT 10:37 PM PDT
Astronomical Twilight 1:59 AM PDT 12:05 AM PDT
Moon 6:02 PM PDT (6/20) 2:43 AM PDT (6/20)
Length of Visible Light 17h 18m
Length of Day
15h 57m
Waxing Gibbous, 89% of the Moon is Illuminated
Jun 20
Waxing Gibbous
Jun 23
Full
Jun 29
Last Quarter
Jul 8
New
Jul 15
First Quarter

Hourly Weather History & Observations

Time (PDT) Temp. Dew Point Humidity Pressure Visibility Wind Dir Wind Speed Gust Speed Precip Events Conditions
12:55 AM 60.1 °F 39.0 °F 46% 29.86 in 10.0 mi WNW 16.1 mph - N/A   Mostly Cloudy
1:55 AM 59.0 °F 39.0 °F 48% 29.83 in 10.0 mi WNW 15.0 mph - N/A   Partly Cloudy
2:55 AM 59.0 °F 39.0 °F 48% 29.83 in 10.0 mi WNW 17.3 mph - N/A   Overcast
3:55 AM 57.0 °F 41.0 °F 55% 29.83 in 10.0 mi WNW 15.0 mph - 0.00 in Rain Light Rain
4:55 AM 57.0 °F 39.9 °F 53% 29.83 in 10.0 mi NW 16.1 mph - 0.00 in Rain Light Rain
5:55 AM 55.9 °F 39.0 °F 53% 29.83 in 10.0 mi NW 12.7 mph - 0.00 in   Overcast
6:55 AM 55.0 °F 41.0 °F 59% 29.82 in 10.0 mi NW 10.4 mph - 0.00 in Rain Light Rain
7:55 AM 55.9 °F 39.9 °F 55% 29.82 in 10.0 mi NW 9.2 mph - 0.00 in   Overcast
8:55 AM 57.9 °F 37.9 °F 47% 29.83 in 10.0 mi WNW 11.5 mph - N/A   Overcast
9:55 AM 60.1 °F 37.0 °F 42% 29.84 in 10.0 mi NW 10.4 mph - N/A   Overcast
10:55 AM 60.1 °F 37.9 °F 44% 29.84 in 10.0 mi NW 5.8 mph - N/A   Overcast
11:55 AM 57.9 °F 44.1 °F 60% 29.84 in 10.0 mi North - - N/A   Mostly Cloudy
12:55 PM 59.0 °F 44.1 °F 58% 29.85 in 10.0 mi North - - N/A   Mostly Cloudy
1:55 PM 63.0 °F 39.0 °F 41% 29.86 in 10.0 mi West 16.1 mph - 0.00 in Rain Light Rain
2:55 PM 63.0 °F 37.9 °F 40% 29.87 in 10.0 mi West 11.5 mph - 0.00 in   Overcast
3:55 PM 63.0 °F 39.0 °F 41% 29.90 in 10.0 mi West 16.1 mph 23.0 mph 0.00 in Rain Light Rain
4:55 PM 60.1 °F 43.0 °F 53% 29.92 in 10.0 mi WNW 10.4 mph - 0.00 in Rain Light Rain
5:55 PM 62.1 °F 42.1 °F 48% 29.93 in 10.0 mi NW 8.1 mph - 0.00 in   Overcast
6:55 PM 60.1 °F 43.0 °F 53% 29.95 in 10.0 mi NW 6.9 mph - 0.00 in   Overcast
7:55 PM 57.0 °F 46.0 °F 67% 29.98 in 10.0 mi NW 9.2 mph - 0.01 in Rain Light Rain
8:55 PM 55.9 °F 46.9 °F 72% 30.00 in 10.0 mi NNW 3.5 mph - 0.00 in   Overcast
9:55 PM 55.0 °F 46.9 °F 74% 30.01 in 10.0 mi Calm Calm - N/A   Overcast
10:55 PM 55.0 °F 46.0 °F 72% 30.01 in 10.0 mi NW 4.6 mph - N/A   Overcast
11:55 PM 55.0 °F 44.1 °F 67% 30.02 in 10.0 mi WNW 5.8 mph - N/A   Overcast